Location: Newark
(22.3060°N, 114.2134°E)
Time: 20:38:20
(UTC+00:00)

Vanguard 2 - Pass Details

Date: 09 August 2021
Orbit: 553 x 2937 km, 32.9° (Epoch: 27 September)

Event Time Altitude Azimuth Distance (km) Brightness Sun altitude
Rises 02:48:11 0° 262° (W) 3,809 10.9 65.4°
Reaches altitude 10° 02:51:56 10° 240° (WSW) 3,246 10.7 66.3°
Maximum altitude 02:56:28 15° 207° (SSW) 3,296 10.9 67.3°
Drops below altitude 10° 03:02:11 10° 175° (S) 4,274 11.6 68.6°
Sets 03:08:38 0° 157° (SSE) 5,824 12.2 70.0°
